Location: Passau
(48.5830°N, 13.4830°E)
Time: 19:58:30
(UTC+02:00)

Envisat - Pass Details

Date: 22 April 2024
Orbit: 762 x 764 km, 98.3° (Epoch: 29 May)

Event Time Altitude Azimuth Distance (km) Brightness Sun altitude
Rises 04:40:29 0° 13° (NNE) 3,241 7.1 -12.7°
Reaches altitude 10° 04:42:48 10° 13° (NNE) 2,310 6.2 -12.4°
Maximum altitude 04:47:54 87° 287° (WNW) 771 3.0 -11.7°
Drops below altitude 10° 04:52:58 10° 197° (SSW) 2,292 5.0 -11.0°
Enters shadow 04:53:40 - 197° (SSW) 2,575 5.3 -10.9°
